Theta_e
312 312 315 315 317 318 318 317 311 315 316 314 307 307 310 313 312 313 312 311 311 311 310 310 312 313 312 314 313 313 309 306 310 312 309 311 310 310 307 310 313 311 317 321
311 312 315 315 316 317 318 317 315 314 317 310 308 311 312 312 311 311 311 311 310 309 310 312 311 313 313 315 313 311 311 308 311 310 308 308 309 309 309 306 305 310 313 315
310 311 312 313 316 317 317 315 309 314 314 312 309 311 310 312 312 311 311 310 310 309 309 308 311 311 312 312 316 315 311 304 308 310 311 309 312 312 309 308 309 310 311 311
310 311 312 313 315 317 316 314 311 311 309 310 309 308 310 312 312 311 311 311 310 309 309 309 310 309 309 310 310 311 305 308 310 309 311 312 312 312 312 310 311 312 312 311
311 312 313 314 315 317 317 317 316 312 310 310 309 307 310 312 311 310 311 310 310 309 309 310 311 309 309 309 308 307 306 309 311 310 311 310 311 310 311 311 311 312 314 317
311 312 313 314 316 316 317 317 315 314 310 308 308 309 311 312 311 311 311 311 309 310 310 310 310 310 310 309 309 307 306 307 307 310 310 309 307 309 310 311 316 315 319 320
311 312 313 313 314 316 318 317 315 314 310 309 310 312 313 312 312 311 311 311 310 311 311 311 310 309 309 308 308 307 305 305 305 307 308 311 306 308 311 318 318 317 317 316
310 312 314 313 314 316 317 318 318 316 310 312 313 313 312 312 312 312 312 312 312 311 311 306 307 307 309 309 306 305 304 303 306 308 307 307 310 311 312 315 316 314 314 314
311 311 312 314 314 315 315 317 318 319 313 311 314 313 312 309 310 310 312 312 311 311 306 305 309 311 310 310 308 306 305 303 307 306 306 311 309 312 311 312 315 313 312 312
312 310 310 311 312 315 315 315 315 318 315 315 314 312 312 313 310 308 310 311 310 309 303 305 306 303 306 303 310 309 303 307 307 306 306 309 310 309 311 312 311 310 309 309
313 312 310 309 310 314 314 314 315 316 317 318 316 316 314 313 313 307 311 308 307 304 303 300 299 299 301 304 307 308 305 308 306 309 307 309 308 310 312 308 307 307 307 306
314 314 313 310 309 310 310 313 315 315 316 317 317 316 317 316 312 313 311 309 309 307 300 298 296 307 304 299 300 304 305 305 302 307 306 309 308 308 308 307 305 305 304 304
315 314 314 313 311 309 309 310 311 314 315 315 315 316 317 316 315 313 312 311 310 309 309 305 299 299 298 300 301 303 304 306 304 303 303 305 305 304 305 305 304 304 304 303
315 315 315 315 315 314 314 314 314 316 316 315 316 318 318 317 316 314 313 313 311 310 308 307 301 300 304 296 299 298 302 305 301 300 302 304 305 305 305 304 304 304 303 303
315 315 315 315 316 315 315 317 316 316 316 314 316 315 315 318 317 316 313 313 312 310 310 308 305 305 304 305 305 302 304 303 301 302 303 304 305 305 305 304 304 304 304 305
311 312 313 314 314 314 315 318 317 317 316 316 311 316 316 317 317 315 313 313 312 311 312 311 311 309 307 303 306 305 305 305 306 305 305 305 306 306 306 305 305 305 304 304
310 311 311 312 313 313 314 316 318 318 316 316 313 312 317 318 316 313 313 312 313 313 312 313 311 310 307 300 300 307 307 307 307 306 305 305 305 306 307 307 306 306 306 304
311 310 311 313 315 316 318 318 315 316 317 314 313 311 316 319 316 315 314 313 313 314 314 312 309 308 308 307 307 309 308 309 308 308 308 308 308 308 307 307 307 307 306 304
311 311 315 318 318 319 319 318 317 317 316 315 315 315 316 318 318 317 317 318 316 316 315 314 311 306 309 308 310 310 308 310 309 308 308 308 308 307 307 307 307 307 306 305
312 318 319 320 320 318 317 316 315 314 314 314 312 314 315 318 317 318 317 317 316 311 315 314 313 310 310 309 307 307 310 310 310 309 309 309 309 308 308 307 307 307 306 305
319 320 319 319 318 317 317 316 315 316 314 314 314 315 315 318 314 314 314 312 313 316 315 314 310 310 311 310 310 309 310 311 310 310 310 309 307 308 308 307 306 306 306 306
316 315 315 315 317 318 317 317 319 318 319 319 318 317 317 318 317 317 312 316 315 312 312 311 311 310 311 310 311 311 311 311 311 310 310 310 309 309 308 307 306 306 306 306
314 316 317 319 319 318 323 323 318 317 320 320 318 316 318 317 317 316 314 316 316 311 313 313 309 310 309 308 309 310 310 311 311 310 309 309 309 309 308 306 305 306 306 306
312 320 318 319 319 322 320 318 316 320 320 320 319 318 316 314 312 314 315 311 310 309 309 310 305 309 310 310 310 310 309 309 310 309 309 308 308 308 307 306 306 306 306 306
314 320 314 318 322 321 321 319 319 319 319 319 319 317 315 311 312 311 310 311 310 305 304 306 310 310 310 310 310 309 309 309 307 308 308 307 308 307 307 306 306 306 305 306
316 318 319 320 321 321 321 320 319 320 321 320 317 313 311 312 310 312 313 309 305 307 305 311 311 310 310 309 309 308 307 307 307 308 307 307 307 306 307 306 306 306 306 305
321 321 321 321 322 321 320 321 319 319 318 312 312 313 314 310 311 311 308 308 306 310 311 311 311 310 310 310 309 307 307 307 307 307 307 307 307 306 305 306 306 305 305 305
Wind_Speed
19 19 21 22 20 15 7 16 4 21 10 7 4 3 5 7 13 17 8 5 5 4 7 7 5 5 8 20 5 4 4 5 4 4 6 6 15 5 4 4 6 2 1 4
17 16 19 21 18 17 5 7 17 25 4 4 3 4 5 12 11 7 6 7 7 6 6 6 6 6 13 22 8 3 4 4 3 4 6 8 7 6 5 5 3 2 1 3
16 16 18 18 17 14 7 4 4 11 25 9 5 3 6 4 14 11 8 7 6 6 8 9 4 4 8 14 15 15 7 4 4 5 3 3 3 5 6 5 4 3 4 5
16 17 18 19 12 9 7 7 3 3 3 8 7 6 3 4 5 7 16 6 9 2 5 3 4 6 6 8 17 8 5 4 3 3 3 3 3 3 5 4 3 4 6 6
14 16 19 20 11 10 14 5 4 8 5 4 8 6 3 4 4 4 4 5 5 7 4 3 0 2 2 1 8 5 5 2 2 4 4 5 1 3 5 6 4 1 3 3
12 13 18 19 15 11 11 11 7 2 6 3 4 2 2 2 3 8 5 4 3 2 2 2 4 5 4 1 1 3 3 3 3 3 5 6 5 4 4 2 1 4 5 1
8 11 14 17 15 15 14 12 10 5 3 2 1 4 3 2 4 4 2 4 3 3 7 6 2 1 2 1 2 3 3 3 2 1 4 2 5 3 3 7 3 5 5 4
4 7 10 12 13 15 12 10 4 3 2 1 3 6 4 6 4 2 2 2 2 6 4 4 4 5 4 6 5 5 3 4 2 4 3 5 5 3 4 1 4 4 2 5
5 2 4 7 10 10 9 9 6 3 4 2 1 3 3 2 1 4 1 3 5 3 4 4 3 1 2 2 5 7 6 6 4 3 4 4 4 5 8 4 4 3 6 5
8 3 3 3 5 5 8 7 4 2 2 1 1 1 2 2 2 2 2 1 4 6 3 3 2 2 1 0 1 3 3 3 2 2 3 5 3 14 8 6 2 4 9 9
7 6 4 5 3 3 4 5 7 3 3 4 3 1 1 3 4 4 3 3 5 4 4 3 2 3 4 1 2 2 3 3 2 2 1 6 7 4 1 2 3 7 9 14
8 7 5 5 5 6 6 5 6 8 5 4 8 10 10 7 6 9 5 6 5 5 4 1 2 1 2 2 2 2 2 4 3 6 4 2 2 6 7 8 13 13 15 21
7 6 6 6 4 5 6 7 10 8 5 8 9 9 11 14 10 8 5 4 6 6 8 7 3 2 3 3 4 2 2 4 1 3 3 8 16 17 14 11 14 16 17 19
7 6 7 7 6 6 5 6 7 4 3 2 5 7 10 12 17 15 13 6 12 12 10 5 3 3 7 2 2 2 5 9 4 5 11 10 4 4 8 15 15 16 18 20
6 6 7 8 7 6 6 5 3 3 2 3 9 17 16 19 19 21 18 14 17 15 6 2 3 6 5 5 3 4 13 7 5 6 11 5 6 3 5 8 12 14 19 22
6 7 7 8 8 7 4 4 6 5 3 4 3 5 6 13 20 24 24 21 18 12 7 5 6 6 8 3 3 8 19 19 18 3 10 13 8 11 10 13 17 19 22 24
8 9 9 10 10 8 5 3 3 4 4 3 7 9 3 7 22 26 25 27 16 13 9 9 8 8 12 3 4 7 14 19 21 20 15 15 19 16 13 18 21 24 22 25
8 9 10 11 11 1 2 1 8 10 4 2 3 5 5 3 6 8 14 11 14 10 8 6 7 11 5 3 14 11 10 11 16 18 18 19 16 15 16 17 21 24 17 22
6 8 9 3 2 2 5 9 5 6 7 2 2 2 3 2 5 7 7 8 3 6 6 6 10 3 4 8 11 11 16 11 6 5 9 9 11 12 11 14 16 20 16 17
5 5 1 2 4 8 6 2 1 4 4 4 5 5 3 4 3 3 3 4 2 1 3 10 2 2 9 4 3 5 7 9 13 11 11 12 14 10 9 12 11 13 14 14
2 2 1 5 8 4 2 2 2 3 3 6 6 8 4 6 3 3 3 2 2 1 3 2 1 1 3 9 7 2 10 10 15 12 10 9 9 9 11 11 12 11 13 12
2 5 7 5 1 2 2 3 1 3 3 4 4 4 6 4 4 2 3 2 3 1 1 2 1 2 4 10 11 1 6 4 8 10 11 12 13 12 11 10 13 11 12 10
5 1 2 2 2 1 2 2 2 2 4 4 5 4 3 2 2 1 1 1 1 1 1 0 3 3 10 2 3 5 9 8 10 14 10 12 12 12 8 9 10 12 14 8
1 2 2 4 3 4 4 4 3 7 11 18 12 7 2 1 2 1 2 1 2 2 2 2 2 5 9 8 10 15 7 4 5 8 9 12 11 9 8 10 10 9 10 4
2 2 3 5 8 5 8 9 10 9 13 13 4 1 1 2 2 2 2 3 2 2 3 3 6 5 7 9 9 8 7 3 4 8 9 13 14 12 12 11 10 10 9 3
3 5 3 1 3 9 9 7 10 9 8 2 1 1 2 2 1 3 1 2 3 3 4 8 9 8 8 8 7 5 7 7 7 8 8 4 8 14 12 6 9 5 2 3
4 6 7 14 11 11 14 8 5 4 3 0 1 2 1 0 2 1 2 3 4 6 10 10 11 9 6 10 9 8 10 10 9 8 10 9 6 3 5 7 6 5 3 1
Wind_Direction
7 11 11 11 17 24 51 39 43 1 7 48 26 29 334 38 358 21 35 70 69 47 26 32 71 71 3 340 355 40 345 124 70 22 321 111 81 71 82 89 331 15 129 206
12 12 6 7 12 20 94 64 44 26 61 87 20 1 46 53 20 8 26 20 27 26 34 81 50 38 356 31 39 30 330 25 55 4 347 11 50 8 58 101 76 3 57 248
12 11 2 2 9 22 42 64 29 26 51 76 107 65 17 42 29 45 46 20 49 33 33 21 65 14 14 18 24 42 76 60 112 162 181 228 30 46 50 93 76 291 254 301
13 12 10 12 18 35 55 58 40 28 356 15 70 70 40 27 19 36 24 33 35 38 52 43 58 1 349 12 10 29 82 93 102 141 185 141 206 89 76 100 179 153 276 343
17 18 19 24 46 61 67 67 78 87 74 51 52 20 0 50 3 58 357 84 32 46 87 133 279 67 58 7 344 33 2 146 95 346 333 0 310 243 172 181 147 223 254 260
22 24 24 33 45 64 67 73 79 101 16 37 67 305 138 7 111 48 112 126 112 59 184 253 271 267 265 198 54 16 52 106 63 298 327 352 13 351 83 127 79 170 199 229
25 27 29 33 34 49 66 79 76 69 346 80 164 146 107 106 74 127 121 60 79 337 325 304 87 120 208 193 314 207 116 87 74 199 13 319 238 280 97 115 84 69 87 356
16 35 35 39 42 49 62 70 79 64 43 122 57 101 93 121 77 112 106 15 11 333 19 54 41 359 40 23 70 47 162 117 113 146 203 302 283 21 66 7 222 80 109 341
355 350 25 42 40 45 49 59 74 52 106 303 167 113 116 149 116 353 99 100 21 38 72 59 87 95 271 300 351 59 76 73 118 130 148 233 237 311 337 312 247 98 68 20
359 319 279 339 14 32 37 31 21 108 119 100 38 128 173 148 125 150 334 286 0 26 56 74 117 169 228 181 33 351 24 27 132 198 219 283 1 308 320 152 245 15 357 335
352 348 311 273 294 15 24 360 359 1 267 234 175 153 217 189 188 150 162 57 13 43 59 102 232 118 227 88 284 173 153 147 198 162 257 268 4 329 294 344 325 319 319 311
355 353 348 308 277 289 324 322 339 339 292 248 228 232 243 240 216 162 159 157 153 150 92 49 106 110 39 162 268 17 232 184 188 180 224 193 331 262 278 293 303 314 313 309
357 357 5 348 322 301 306 301 304 320 293 286 256 249 236 225 225 214 154 185 172 157 140 146 157 145 130 168 243 155 250 168 241 18 263 239 298 295 271 296 307 303 303 307
356 353 358 351 347 338 336 316 297 309 323 286 234 251 226 228 224 229 225 219 170 155 158 136 142 153 181 223 236 156 210 159 199 262 276 279 287 329 287 304 301 293 304 304
333 335 345 343 339 328 329 311 254 281 328 284 285 282 253 225 221 225 215 206 181 168 165 152 200 163 137 160 169 233 190 192 185 221 204 188 239 264 326 343 338 332 319 307
319 319 323 319 317 326 298 255 246 265 292 297 302 272 269 215 215 214 211 207 188 184 175 194 196 180 164 145 208 246 216 224 227 234 219 228 274 292 292 286 311 308 324 321
299 305 317 312 303 302 262 248 250 250 279 286 310 311 290 235 206 201 196 195 203 200 185 198 178 182 183 122 204 252 221 227 236 240 246 244 253 275 297 304 308 311 316 330
303 300 307 311 307 313 105 287 263 243 282 265 276 274 312 221 190 179 205 218 215 219 208 174 150 140 184 227 237 231 214 234 244 244 244 263 283 286 291 296 300 305 305 334
304 304 313 319 46 345 333 319 317 235 218 265 255 271 273 211 210 203 206 203 218 234 205 182 146 139 203 235 234 211 209 220 245 255 241 247 263 285 300 299 293 304 302 320
311 321 359 34 355 340 322 277 203 179 208 231 243 247 264 233 203 246 247 199 158 217 246 156 170 217 253 330 64 260 256 241 227 235 243 246 255 267 302 309 301 300 287 312
338 9 11 302 313 312 305 285 217 185 252 223 246 240 254 279 188 230 207 33 220 238 20 48 44 342 319 153 164 246 263 256 237 252 276 266 270 285 291 308 309 299 287 306
289 299 282 277 254 259 292 253 257 227 259 223 220 275 259 285 234 121 180 272 61 47 330 60 2 254 133 195 233 268 8 308 241 260 272 263 259 277 285 296 298 299 289 290
320 175 229 228 175 344 223 262 264 265 251 252 270 302 289 259 359 113 108 68 94 124 64 317 228 183 189 179 254 285 297 294 267 271 277 279 276 262 278 279 300 299 289 286
248 217 273 201 229 240 203 207 223 270 269 287 315 283 322 336 13 98 76 2 120 72 25 276 247 237 241 270 288 297 294 274 268 260 263 272 269 254 267 272 282 285 301 264
236 214 244 221 240 274 296 294 292 299 292 307 300 292 283 350 40 25 93 44 13 183 233 240 245 241 255 273 302 310 284 277 292 267 271 263 265 260 270 268 265 282 306 238
237 232 269 321 355 309 326 307 313 338 329 324 315 13 26 28 77 53 55 119 231 253 224 261 257 256 250 276 299 304 313 306 289 282 274 280 211 234 267 249 230 262 255 258
230 238 249 244 268 271 273 279 311 299 305 142 79 39 322 24 57 334 179 203 224 271 274 265 254 268 270 286 287 286 292 297 278 274 252 229 272 259 242 226 224 221 251 172